This is the latest recevied weather packets stored in our database for station/object WJ9H. If no packets are shown the sender has not sent any weather packets the latest 1 day(s).
| Time | Temp. | Humidity | Pressure | Rain* | Wind** | Luminosity | Snow |
|---|---|---|---|---|---|---|---|
| 1777996178 | 11.11° C | - | 1009.9 hPa | 0 mm | 3.58 m/s, 233° | - | - |
| 1777995974 | 10.56° C | - | 1009.9 hPa | 0 mm | 3.13 m/s, 291° | - | - |
| 1777995287 | 10.56° C | - | 1009.9 hPa | 0 mm | 4.47 m/s, 30° | - | - |
| 1777994694 | 10.56° C | - | 1009.5 hPa | 0 mm | 3.13 m/s, 297° | - | - |
| 1777994222 | 10° C | - | 1009.5 hPa | 0 mm | 3.58 m/s, 167° | - | - |
| 1777994087 | 10.56° C | - | 1009.5 hPa | 0 mm | 3.13 m/s, 278° | - | - |
| 1777993778 | 10° C | - | 1009.5 hPa | 0 mm | 3.58 m/s, 167° | - | - |
| 1777993573 | 10.56° C | - | 1009.5 hPa | 0 mm | 3.13 m/s, 150° | - | - |
| 1777993178 | 10.56° C | - | 1009.5 hPa | 0 mm | 3.13 m/s, 150° | - | - |
| 1777992887 | 10.56° C | - | 1009.5 hPa | 0 mm | 4.47 m/s, 284° | - | - |
| 1777992680 | 10° C | - | 1009.5 hPa | 0 mm | 4.47 m/s, 271° | - | - |
| 1777992378 | 10° C | - | 1009.5 hPa | 0 mm | 4.02 m/s, 255° | - | - |
| 1777991978 | 10° C | - | 1009.5 hPa | 0 mm | 4.02 m/s, 255° | - | - |
| 1777991838 | 10° C | - | 1009.5 hPa | 0 mm | 4.02 m/s, 302° | - | - |
| 1777991687 | 10.56° C | - | 1009.5 hPa | 0 mm | 2.68 m/s, 96° | - | - |
| 1777991378 | 10° C | - | 1009.5 hPa | 0 mm | 4.02 m/s, 302° | - | - |
| 1777991051 | 9.44° C | - | 1009.9 hPa | 0 mm | 4.47 m/s, 293° | - | - |
| 1777990636 | 9.44° C | - | 1009.9 hPa | 0 mm | 3.58 m/s, 301° | - | - |
| 1777990487 | 9.44° C | - | 1009.9 hPa | 0 mm | 2.24 m/s, 301° | - | - |
| 1777990038 | 10° C | - | 1009.9 hPa | 0 mm | 2.24 m/s, 246° | - | - |
| 1777989577 | 10° C | - | 1009.9 hPa | 0 mm | 2.24 m/s, 246° | - | - |
| 1777989373 | 10° C | - | 1009.9 hPa | 0 mm | 1.79 m/s, 271° | - | - |
| 1777989289 | 10° C | - | 1009.9 hPa | 0 mm | 2.68 m/s, 280° | - | - |
| 1777988980 | 10° C | - | 1009.9 hPa | 0 mm | 1.79 m/s, 271° | - | - |
| 1777988839 | 10.56° C | - | 1009.9 hPa | 0 mm | 1.79 m/s, 302° | - | - |
* Rain latest hour (hover to see other rain measurements)
** Current wind speed in m/s (hover to see current wind gust speed)